Ely, NV

11:07 PM PST on January 19, 2017 (GMT -0800)
Ely

Weather History for KELY - October, 2011

Change the Weather History Date:

Wednesday, October 26, 2011

  Actual Average Record
Temperature  
Mean Temperature 31 °F 42 °F  
Max Temperature 45 °F 58 °F 74 °F (1983)
Min Temperature 17 °F 26 °F 10 °F (2006)
Degree Days  
Heating Degree Days 34 23  
Month to date heating degree days 428 490  
Since 1 July heating degree days 566 806  
Cooling Degree Days 0 0  
Month to date cooling degree days 0 0  
Year to date cooling degree days 259 218  
Moisture  
Dew Point 10 °F    
Average Humidity 42    
Maximum Humidity 62    
Minimum Humidity 22    
Precipitation  
Precipitation 0.00 in 0.03 in 0.72 in (1991)
Month to date precipitation 1.16 0.84  
Year to date precipitation 11.42 8.31  
Snow  
Snow 0.00 in 0.10 in 6.00 in (1991)
Month to date snowfall 2.6 2.3  
Since 1 July snowfall 2.6 2.7  
Since 1 September snowfall 2.6 2.7  
Snow Depth 0.00 in    
Sea Level Pressure  
Sea Level Pressure 30.20 in    
Wind  
Wind Speed 12 mph (North)    
Max Wind Speed 25 mph    
Max Gust Speed 31 mph    
Visibility 10 miles    
Events      
T = Trace of Precipitation, MM = Missing Value Source: NWS Daily Summary

Daily Weather History Graph

Daily Weather History Graph

Search for Another Location

Airport or City:

Trip Planner

Search our weather history database for the weather conditions in past years. The results will help you decide how hot, cold, wet, or windy it might be!

Date:

Astronomy

Oct. 26, 2011 Rise Set
Actual Time 7:00 AM PDT 5:45 PM PDT
Civil Twilight 6:32 AM PDT 6:13 PM PDT
Nautical Twilight 6:01 AM PDT 6:44 PM PDT
Astronomical Twilight 5:30 AM PDT 7:15 PM PDT
Moon 6:53 AM PDT (10/26) 5:31 PM PDT (10/26)
Length of Visible Light 11h 40m
Length of Day
10h 45m
Waning Crescent, 0% of the Moon is Illuminated
Oct 26
Waning Crescent
Oct 26
New
Nov 2
First Quarter
Nov 10
Full
Nov 18
Last Quarter

Hourly Weather History & Observations

Time (PDT) Temp. Windchill Dew Point Humidity Pressure Visibility Wind Dir Wind Speed Gust Speed Precip Events Conditions
12:53 AM 30.0 °F 18.3 °F 15.1 °F 54% 30.07 in 10.0 mi North 17.3 mph - N/A   Clear
1:53 AM 28.0 °F 17.0 °F 14.0 °F 56% 30.08 in 10.0 mi NNE 13.8 mph - N/A   Clear
2:53 AM 27.0 °F 14.7 °F 12.9 °F 56% 30.09 in 10.0 mi North 16.1 mph - N/A   Clear
3:53 AM 26.6 °F 16.2 °F 12.2 °F 55% 30.16 in 10.0 mi North 11.5 mph - N/A   Clear
4:53 AM 25.0 °F 14.2 °F 12.0 °F 58% 30.15 in 10.0 mi North 11.5 mph - N/A   Clear
6:53 AM 25.0 °F 15.5 °F 12.9 °F 60% 30.21 in 10.0 mi NNW 9.2 mph - N/A   Clear
7:53 AM 24.1 °F 16.0 °F 14.0 °F 65% 30.24 in 10.0 mi NNW 6.9 mph - N/A   Clear
8:53 AM 28.9 °F 18.2 °F 15.1 °F 56% 30.23 in 10.0 mi North 13.8 mph - N/A   Clear
9:53 AM 33.1 °F 21.5 °F 17.1 °F 52% 30.22 in 10.0 mi North 19.6 mph 25.3 mph N/A   Clear
10:53 AM 37.9 °F 27.9 °F 16.0 °F 41% 30.21 in 10.0 mi North 19.6 mph - N/A   Clear
11:53 AM 39.9 °F 31.1 °F 14.0 °F 35% 30.20 in 10.0 mi North 17.3 mph 25.3 mph N/A   Clear
12:53 PM 42.1 °F 33.3 °F 10.0 °F 27% 30.19 in 10.0 mi NNW 19.6 mph 28.8 mph N/A   Clear
1:33 PM 42.8 °F 34.8 °F 8.6 °F 25% 30.20 in 2.0 mi North 17.3 mph 28.8 mph N/A   Haze
1:42 PM 44.6 °F 36.4 °F 8.6 °F 23% 30.20 in 10.0 mi North 20.7 mph 31.1 mph N/A   Clear
1:53 PM 44.1 °F 35.4 °F 9.0 °F 24% 30.17 in 10.0 mi NNW 21.9 mph 29.9 mph N/A   Clear
2:53 PM 44.1 °F 36.2 °F 8.1 °F 23% 30.15 in 10.0 mi North 18.4 mph - N/A   Clear
3:53 PM 44.1 °F 35.9 °F 8.1 °F 23% 30.16 in 10.0 mi NNW 19.6 mph 25.3 mph N/A   Clear
4:53 PM 42.1 °F 33.6 °F 7.0 °F 24% 30.18 in 10.0 mi NNW 18.4 mph - N/A   Clear
5:53 PM 36.0 °F 28.5 °F 6.1 °F 29% 30.21 in 10.0 mi North 10.4 mph - N/A   Clear
6:53 PM 30.9 °F 24.3 °F 7.0 °F 37% 30.26 in 10.0 mi North 6.9 mph - N/A   Clear
7:53 PM 28.0 °F 20.0 °F 6.1 °F 39% 30.29 in 10.0 mi NW 8.1 mph - N/A   Clear
8:53 PM 27.0 °F 18.7 °F 7.0 °F 43% 30.26 in 10.0 mi NNE 8.1 mph - N/A   Clear
9:53 PM 19.9 °F 12.1 °F 8.1 °F 60% 30.29 in 10.0 mi South 5.8 mph - N/A   Clear
10:53 PM 21.9 °F - 6.1 °F 51% 30.26 in 10.0 mi Calm Calm - N/A   Clear
11:53 PM 21.9 °F - 6.1 °F 51% 30.25 in 10.0 mi Calm Calm - N/A   Clear